Location: Wells
(51.2093°N, 2.6446°W)
Time: 07:01:21
(UTC+01:00)

PCSat - Pass Details

Date: 15 March 2026
Orbit: 780 x 790 km, 67.1° (Epoch: 13 April)

Event Time Altitude Azimuth Distance (km) Brightness Sun altitude
Exits shadow 03:52:20 - 318° (NW) 2,942 12.4 -23.9°
Reaches altitude 10° 03:54:33 10° 334° (NNW) 2,365 12.0 -23.5°
Maximum altitude 03:57:54 16° 12° (NNE) 1,959 12.0 -23.1°
Drops below altitude 10° 04:01:15 10° 51° (NE) 2,363 13.1 -22.6°
Sets 04:04:38 0° 72° (ENE) 3,291 14.2 -22.1°
